A7AAX OTHH-OTHH

Flight info

Callsign A7AAX
Flight time 0h 6m
Altitude 1500
Route VFR
Aircraft SF50/L-V/N

Departure

Time 2026-05-06 18:17
Airport Hamad International Airport (OTHH)

Arrival

Time 2026-05-06 18:24
Airport Hamad International Airport (OTHH)
Time Latitude Longitude Altitude Speed Heading
2026-05-06 18:05 25.25604 51.62110 5 ft 0 kts 274°
2026-05-06 18:14 25.25606 51.62106 5 ft 2 kts 323°
2026-05-06 18:14 25.25824 51.62103 5 ft 29 kts 338°
2026-05-06 18:14 25.25866 51.62123 5 ft 13 kts 175°
2026-05-06 18:15 25.25737 51.62170 5 ft 23 kts 157°
2026-05-06 18:15 25.25593 51.62236 5 ft 17 kts 157°
2026-05-06 18:15 25.25477 51.62288 5 ft 20 kts 155°
2026-05-06 18:15 25.25449 51.62368 5 ft 12 kts 71°
2026-05-06 18:16 25.25484 51.62468 5 ft 14 kts 67°
2026-05-06 18:16 25.25525 51.62564 5 ft 11 kts 40°
2026-05-06 18:16 25.25575 51.62630 5 ft 14 kts 26°
2026-05-06 18:16 25.25694 51.62612 5 ft 30 kts 334°
2026-05-06 18:17 25.26109 51.62431 5 ft 93 kts 338°
2026-05-06 18:17 25.26778 51.62123 93 ft 124 kts 336°
2026-05-06 18:17 25.27437 51.61766 316 ft 133 kts 336°
2026-05-06 18:17 25.28337 51.61259 707 ft 154 kts 329°
2026-05-06 18:18 25.29378 51.60528 550 ft 193 kts 342°
2026-05-06 18:18 25.30602 51.60684 1492 ft 181 kts 31°
2026-05-06 18:18 25.30947 51.62102 1560 ft 238 kts 104°
2026-05-06 18:18 25.29738 51.63502 1585 ft 271 kts 152°
2026-05-06 18:19 25.27774 51.63774 1156 ft 287 kts 179°
2026-05-06 18:19 25.25832 51.63861 570 ft 275 kts 178°
2026-05-06 18:19 25.24077 51.63600 561 ft 230 kts 219°
2026-05-06 18:19 25.24239 51.62756 395 ft 149 kts 13°
2026-05-06 18:20 25.25196 51.62813 104 ft 133 kts 342°
2026-05-06 18:20 25.26009 51.62468 11 ft 111 kts 339°
2026-05-06 18:20 25.26629 51.62200 5 ft 84 kts 338°
2026-05-06 18:20 25.27211 51.61946 5 ft 111 kts 339°
2026-05-06 18:21 25.27968 51.61611 169 ft 120 kts 339°
2026-05-06 18:21 25.28225 51.61494 267 ft 120 kts 339°
2026-05-06 18:21 25.29602 51.61074 744 ft 124 kts 349°
2026-05-06 18:21 25.30503 51.60858 874 ft 135 kts 359°
2026-05-06 18:22 25.31327 51.61340 935 ft 161 kts 63°
2026-05-06 18:22 25.31084 51.62617 817 ft 189 kts 144°
2026-05-06 18:22 25.29979 51.63263 1071 ft 187 kts 151°
2026-05-06 18:22 25.28895 51.63794 1180 ft 193 kts 155°
2026-05-06 18:23 25.27786 51.64217 1059 ft 205 kts 162°
2026-05-06 18:23 25.26418 51.64641 1052 ft 208 kts 164°
2026-05-06 18:23 25.24965 51.64993 897 ft 215 kts 170°
2026-05-06 18:23 25.23599 51.64588 763 ft 203 kts 240°
2026-05-06 18:24 25.23098 51.63227 557 ft 177 kts 289°
2026-05-06 18:24 25.23268 51.62879 0 ft 1 kts
2026-05-06 18:24 25.23275 51.62879 0 ft 0 kts
2026-05-06 18:24 25.23280 51.62880 0 ft 0 kts
2026-05-06 18:25 25.23282 51.62880 0 ft 0 kts
2026-05-06 18:25 25.25604 51.62110 5 ft 0 kts 275°
2026-05-06 18:27 25.25613 51.62105 5 ft 6 kts
2026-05-06 18:27 25.25650 51.62170 5 ft 16 kts 59°
2026-05-06 18:27 25.25598 51.62226 5 ft 13 kts 145°
2026-05-06 18:27 25.25527 51.62268 5 ft 12 kts 155°
2026-05-06 18:28 25.25452 51.62309 5 ft 11 kts 134°
2026-05-06 18:28 25.25447 51.62366 5 ft 6 kts 66°
2026-05-06 18:28 25.25458 51.62386 5 ft 3 kts 45°
2026-05-06 18:28 25.25459 51.62398 5 ft 2 kts 77°
2026-05-06 18:29 25.25471 51.62425 5 ft 5 kts 65°
2026-05-06 18:29 25.25492 51.62471 5 ft 8 kts 72°
2026-05-06 18:29 25.25517 51.62547 5 ft 12 kts 81°
2026-05-06 18:29 25.25619 51.62635 5 ft 38 kts
2026-05-06 18:30 25.26049 51.62463 15 ft 92 kts 339°
2026-05-06 18:30 25.26751 51.62146 166 ft 119 kts 340°
2026-05-06 18:30 25.27513 51.61825 364 ft 134 kts 342°
2026-05-06 18:30 25.28437 51.61539 631 ft 143 kts 10°
2026-05-06 18:31 25.28990 51.62379 861 ft 159 kts 83°
2026-05-06 18:31 25.28248 51.63210 866 ft 180 kts 166°
2026-05-06 18:31 25.26930 51.63534 672 ft 201 kts 168°
2026-05-06 18:31 25.25526 51.63813 612 ft 203 kts 170°
2026-05-06 18:32 25.24153 51.64142 552 ft 207 kts 165°
2026-05-06 18:32 25.23215 51.63652 278 ft 161 kts 322°
2026-05-06 18:32 25.24294 51.63234 223 ft 159 kts 338°
2026-05-06 18:32 25.25350 51.62754 101 ft 170 kts 341°
2026-05-06 18:33 25.26483 51.62266 82 ft 167 kts 340°
2026-05-06 18:33 25.27493 51.62001 617 ft 133 kts 356°
2026-05-06 18:33 25.28415 51.61618 694 ft 133 kts 332°
2026-05-06 18:33 25.29100 51.61132 551 ft 126 kts 335°
2026-05-06 18:34 25.29805 51.61446 307 ft 138 kts 81°
2026-05-06 18:34 25.29314 51.62187 398 ft 129 kts 149°
2026-05-06 18:34 25.28569 51.62501 313 ft 130 kts 163°
2026-05-06 18:34 25.27718 51.62755 239 ft 138 kts 166°
2026-05-06 18:35 25.26847 51.62958 302 ft 135 kts 167°
2026-05-06 18:35 25.25893 51.63195 311 ft 147 kts 168°
2026-05-06 18:35 25.24858 51.63440 201 ft 163 kts 172°
2026-05-06 18:35 25.24592 51.62911 56 ft 123 kts 349°
2026-05-06 18:36 25.25462 51.62756 124 ft 140 kts 335°
2026-05-06 18:36 25.26430 51.62284 111 ft 155 kts 339°
2026-05-06 18:36 25.27354 51.61868 487 ft 148 kts 338°
2026-05-06 18:36 25.28224 51.61444 696 ft 152 kts 341°
2026-05-06 18:37 25.29141 51.61838 630 ft 153 kts 49°
2026-05-06 18:37 25.29188 51.62643 652 ft 181 kts 120°
2026-05-06 18:37 25.27682 51.63483 768 ft 207 kts 162°